User: anonymous   Login
Location: Unspecified
(0.0000°N, 0.0000°E)
Time: 12:58:35
(UTC+00:00)
Language:

Gonets-D1 - Orbit

View from above orbital plane
View from above orbital plane
View from above satellite
View from above satellite

Ground track
Ground track

The orbit data is extracted from the following two-line orbital elements,

1 24726U 97006B   17350.77380919 +.00000013 +00000-0 +11270-4 0  9992
2 24726 082.6018 075.2395 0004271 280.3804 079.6805 12.61337477959186
Epoch (UTC): 16 December 2017 18:34:17
Eccentricity: 0.0004271
inclination: 82.6018°
perigee height: 1414 km
apogee height: 1421 km
right ascension of ascending node: 75.2395°
argument of perigee: 280.3804°
revolutions per day: 12.61337477
mean anomaly at epoch: 79.6805°
orbit number at epoch: 95918

The dashed part of the orbit path shows where the satellite is in the earth's shadow,  

DLR